NOAA 16 DEB, 42401

Orbit data source: Space-Track

NOAA 16 DEB, 42401 is space debris in SSO originally from a launch on Thu, 21 Sep 2000 UTC launched from the Air Force Western Test Range (AFWTR). Debris objects in space refer to the collection of defunct objects orbiting the Earth. Examples of debris include non-operational satellites, rocket bodies, and fragments generated from explosions, collisions, or faulty payload assembly.

Loading next visibility...
Identifier
42401, 2000-055SV
Orbit
SSO
Country
Flag of USUS
Related business
Manufacturer
Unknown
Mission
Spacecraft
Bus & Motor
Unknown
Mass
Unknown
Launch date (UTC)
2000-09-21 (25 years ago)
Launch vehicle
Unknown
Launch site
Air Force Western Test Range (AFWTR)
Object type
Payload
Rocket body
Debris
Shape & HBR
Unknown
Radar Cross Section
Small (<0.1 m²)

Expand to show TLE details & history
Last TLE update: 18 hours ago

TLE from 18 hours ago
0 NOAA 16 DEB
1 42401U 00055SV  25258.33317189  .00014335  00000-0  33683-2 0  9999
2 42401  98.9672 110.2269 0046069 156.5933 203.7372 14.53871799498405
Epoch: 2025-09-15T07:59Z
TLE epoch observation values (Epoch: 2025-09-15T07:59:46.051Z)
Latitude
-0.00004°
Longitude
-4.25431°
Altitude
745.918 km
Speed
7.466 km/s
True Right ascension
07h 20m 54s
True Declination
0° 00' 00"
Sunlit
Object was in daylight at epoch
Visualization orbit readout
Latitude
Unknown
Longitude
Unknown
Altitude
Unknown
Speed
Unknown
Apparent Right ascension
Unknown
Apparent Declination
Unknown
Sunlit
N/A
Visualization observer readout
Local Sidereal Time
19:08:49
Azimuth
Unknown
Elevation
Unknown
Doppler factor
Unknown
Orbital elements
Apogee altitude
742.812 km
Perigee altitude
677.502 km
Semi-major axis
7,088.294 km
Eccentricity
0.00461
Inclination
98.9672°
RAAN
110.2269°
Arg. of periapsis
156.5933°
True anomaly
203.52581°
Mean anomaly
203.7372°
Eccentric anomaly
203.63139°
Mean motion
3.63689 °/min
Orbital period
98.99 mins
BSTAR
0.0033683
Loading maneuver chart data...
Computing Atmospheric mass density...
Loading historical data...
Loading historical data...
Loading historical data...
Loading historical data...
Loading historical data...
Loading historical data...
Loading historical data...

Documentation

Showing up to 5 results
|